Location: Erlenbrunn
(49.1717°N, 7.6142°E)
Time: 08:51:44
(UTC+00:00)

MOS 1 Rocket - Pass Details

Date: 25 November 2020
Orbit: 613 x 831 km, 97.4° (Epoch: 25 January)

Event Time Altitude Azimuth Distance (km) Brightness Sun altitude
Exits shadow 18:53:20 55° 312° (NW) 1,000 4.2 -31.3°
Maximum altitude 18:53:50 57° 289° (WNW) 977 4.2 -31.4°
Drops below altitude 10° 18:59:09 10° 212° (SSW) 2,430 6.4 -32.3°
Sets 19:01:31 0° 208° (SSW) 3,350 7.1 -32.7°
